Вернуться в каталог

STARLINK-3521

АктивенСвязьVLEO
NORAD 51742·PAYLOAD·🇺🇸 United States

Запущен Feb 21, 2022 с Cape Canaveral Space Force Station

Loading…

Ближайшие Пролёты (ближайшие 24 часа)

TLE

СвежийSource: CelesTrak SupGP

Эпоха: Sep 15, 2026, 02:43 UTC

1 51742C 22016AE  26258.11368056  .00013743  00000+0  40610-3 0  2582
2 51742  53.1570 174.6903 0001269  84.1155 195.4765 15.34378535    16

Отслеживайте STARLINK-3521 в реальном времени с AllMySat

Download on the App Store